Skagway, AK

7:33 PM AKST on November 19, 2017 (GMT -0900)
Skagway

Weather History for PAGY - October, 2012

Change the Weather History Date:

Thursday, October 11, 2012

  Actual Average Record
Temperature  
Mean Temperature 42 °F -  
Max Temperature 46 °F 47 °F 58 °F (1991)
Min Temperature 39 °F 38 °F 27 °F (1997)
Degree Days  
Heating Degree Days 22    
Moisture  
Dew Point 23 °F    
Average Humidity 45    
Maximum Humidity 56    
Minimum Humidity 38    
Precipitation  
Precipitation 0.00 in - - ()
Sea Level Pressure  
Sea Level Pressure 29.89 in    
Wind  
Wind Speed 13 mph (NNE)    
Max Wind Speed 18 mph    
Max Gust Speed 28 mph    
Visibility 10 miles    
Events      
Averages and records for this station are not official NWS values.
T = Trace of Precipitation, MM = Missing Value Source: NWS Daily Summary

Daily Weather History Graph

Daily Weather History Graph

Search for Another Location

Airport or City:

Trip Planner

Search our weather history database for the weather conditions in past years. The results will help you decide how hot, cold, wet, or windy it might be!

Date:

Astronomy

Oct. 11, 2012 Rise Set
Actual Time 7:31 AM AKDT 6:02 PM AKDT
Civil Twilight 6:50 AM AKDT 6:44 PM AKDT
Nautical Twilight 6:02 AM AKDT 7:31 PM AKDT
Astronomical Twilight 5:14 AM AKDT 8:19 PM AKDT
Moon 2:24 AM AKDT (10/11) 4:27 PM AKDT (10/11)
Length of Visible Light 11h 53m
Length of Day
10h 31m
Waning Crescent, 17% of the Moon is Illuminated
Oct 11
Waning Crescent
Oct 15
New
Oct 21
First Quarter
Oct 29
Full
Nov 6
Last Quarter

Hourly Weather History & Observations

Time (AKDT) Temp. Windchill Dew Point Humidity Pressure Visibility Wind Dir Wind Speed Gust Speed Precip Events Conditions
12:53 AM 46.0 °F 39.0 °F 30.9 °F 56% 29.99 in 10.0 mi NNE 17.3 mph 27.6 mph N/A   Overcast
1:53 AM 46.0 °F 40.2 °F 30.0 °F 54% 29.99 in 10.0 mi NNE 12.7 mph 27.6 mph N/A   Overcast
2:53 AM 46.0 °F 41.4 °F 28.0 °F 50% 30.00 in 10.0 mi NNE 9.2 mph 20.7 mph N/A   Overcast
3:53 AM 45.0 °F 38.9 °F 27.0 °F 49% 30.00 in 10.0 mi NNE 12.7 mph 24.2 mph N/A   Overcast
4:53 AM 45.0 °F 37.9 °F 27.0 °F 49% 29.99 in 10.0 mi NNE 16.1 mph - N/A   Overcast
5:53 AM 45.0 °F 39.3 °F 26.1 °F 48% 29.98 in 10.0 mi NNE 11.5 mph - N/A   Overcast
6:53 AM 44.1 °F 37.7 °F 26.1 °F 49% 29.98 in 10.0 mi North 12.7 mph 19.6 mph N/A   Overcast
7:53 AM 43.0 °F 36.0 °F 24.1 °F 47% 29.99 in 10.0 mi NE 13.8 mph 19.6 mph N/A   Overcast
8:53 AM 43.0 °F 36.0 °F 24.1 °F 47% 29.99 in 10.0 mi NNE 13.8 mph 20.7 mph N/A   Overcast
9:53 AM 43.0 °F 36.8 °F 24.1 °F 47% 29.98 in - NNE 11.5 mph 18.4 mph N/A   Overcast
10:53 AM 43.0 °F 37.2 °F 23.0 °F 45% 29.97 in - NNE 10.4 mph - N/A   Overcast
12:53 PM 45.0 °F 37.4 °F 21.9 °F 40% 29.92 in - NE 18.4 mph 24.2 mph N/A   Scattered Clouds
1:53 PM 46.0 °F 39.9 °F 21.9 °F 39% 29.90 in 10.0 mi NNE 13.8 mph 23.0 mph N/A   Scattered Clouds
2:53 PM 45.0 °F 38.5 °F 21.0 °F 39% 29.88 in 10.0 mi NNE 13.8 mph 20.7 mph N/A   Partly Cloudy
3:53 PM 44.1 °F 38.1 °F 19.9 °F 38% 29.86 in 10.0 mi NNE 11.5 mph 23.0 mph N/A   Scattered Clouds
4:53 PM 43.0 °F 36.8 °F 19.9 °F 40% 29.83 in 10.0 mi NNE 11.5 mph - N/A   Mostly Cloudy
5:53 PM 42.1 °F 36.6 °F 19.0 °F 40% 29.81 in 10.0 mi NNE 9.2 mph 19.6 mph N/A   Mostly Cloudy
6:53 PM 41.0 °F 34.7 °F 19.0 °F 41% 29.80 in 10.0 mi NNE 10.4 mph 19.6 mph N/A   Overcast
7:53 PM 41.0 °F 35.2 °F 19.0 °F 41% 29.77 in 10.0 mi NNE 9.2 mph - N/A   Overcast
8:53 PM 41.0 °F 34.3 °F 19.0 °F 41% 29.75 in 10.0 mi North 11.5 mph 18.4 mph N/A   Overcast
9:53 PM 41.0 °F 35.2 °F 19.0 °F 41% 29.73 in 10.0 mi NNE 9.2 mph - N/A   Overcast
10:53 PM 39.9 °F 33.9 °F 19.9 °F 45% 29.70 in 10.0 mi NNE 9.2 mph - N/A   Overcast
11:53 PM 39.9 °F 33.4 °F 19.9 °F 45% 29.67 in 10.0 mi NNE 10.4 mph - N/A   Overcast